Content
SEND FEEDBACK

Daily
Averages
Monthly
Summary
Canada

VANCOUVER, BRITISH COLUMBIA


Home > North America > Canada > British Columbia
Elevation: 7 feet     Latitude: 49 11N     Longitude: 123 10W

WEATHER
 
SELECT A DAY
Number of Records: 255,153;   Date Range: 5/15/97 - 12/26/14
 
SHARE

PRINT THIS DATA

[ ← Previous Day ]
WEATHER ALMANAC - APRIL 28, 2013
[ Next Day → ]
[ °C ]   °F
Weather ElementAverageHighLow
Temperature49.2 °F55.4 °F (1:35 pm)42.8 °F (5:55 am)
Dewpoint39.5 °F44.6 °F (9:55 pm)35.6 °F (11:15 am)
Humidity69.8 %93 % (9:55 pm)54 % (11:15 am)
Barometer30.10 in30.18 in (8:55 am)29.90 in (11:55 pm)
Wind Speed6.5 mph17.3 mph (1:35 pm)
Wind Gust26.5 mph (2:15 pm)
Weather ElementAverage
Visibility9.8 mi
Wind DirectionSSE (173.7 °)

Weather ElementTotal
Precipitation---
Heating Degree Days15.9 (Base 65)
Averaged from 68 records on April 28, 2013
WEATHER CONDITIONS BREAKOUT
WIND DIRECTION BREAKOUT
WEATHER BY HOUR - APRIL 28, 2013
[ °C ]   °F
Local TimeTemperatureDewpointHumidityBarometerVisibilityWind DirectionWind SpeedGust SpeedPrecipitationEventsConditions
12:35 AM46.4 °F41.0 °F81 %30.16 in10.0 miSSW (210°)8.1 mphClear
12:55 AM48.2 °F39.2 °F71 %30.16 in10.0 miSW (220°)6.9 mphClear
1:15 AM48.2 °F39.2 °F71 %30.16 in10.0 miSSW (200°)9.2 mphClear
1:35 AM48.2 °F39.2 °F71 %30.16 in10.0 miSW (220°)8.1 mphClear
1:55 AM48.2 °F39.2 °F71 %30.16 in10.0 miSW (220°)5.8 mphClear
2:15 AM46.4 °F39.2 °F76 %30.16 in10.0 miSSW (210°)5.8 mphClear
2:35 AM48.2 °F37.4 °F66 %30.16 in10.0 miCalmClear
2:55 AM46.4 °F37.4 °F71 %30.16 in10.0 miSW (220°)3.5 mphClear
3:15 AM46.4 °F37.4 °F71 %30.16 in10.0 miCalmClear
3:35 AM46.4 °F37.4 °F71 %30.16 in10.0 miCalmClear
3:55 AM44.6 °F37.4 °F76 %30.17 in10.0 miSSW (210°)3.5 mphClear
4:15 AM44.6 °F37.4 °F76 %30.17 in10.0 miSSW (210°)8.1 mphClear
4:35 AM44.6 °F37.4 °F76 %30.17 in10.0 miSSW (210°)4.6 mphClear
4:55 AM44.6 °F37.4 °F76 %30.17 in10.0 miNorthClear
5:15 AM44.6 °F37.4 °F76 %30.17 in10.0 miSSW (210°)5.8 mphScattered Clouds
5:35 AM44.6 °F37.4 °F76 %30.17 in10.0 miCalmScattered Clouds
5:55 AM42.8 °F37.4 °F81 %30.17 in10.0 miSSW (210°)6.9 mphMostly Cloudy
6:15 AM44.6 °F37.4 °F76 %30.16 in10.0 miSSW (210°)4.6 mphOvercast
6:35 AM44.6 °F37.4 °F76 %30.16 in10.0 miCalmScattered Clouds
6:55 AM46.4 °F37.4 °F71 %30.17 in10.0 miCalmClear
7:15 AM46.4 °F37.4 °F71 %30.17 in10.0 miCalmPartly Cloudy
7:35 AM48.2 °F37.4 °F66 %30.17 in10.0 miSW (220°)3.5 mphScattered Clouds
7:55 AM48.2 °F37.4 °F66 %30.17 in10.0 miSW (220°)5.8 mphScattered Clouds
8:15 AM48.2 °F39.2 °F71 %30.17 in10.0 miSouth (190°)4.6 mphScattered Clouds
8:35 AM50.0 °F39.2 °F66 %30.17 in10.0 miSSE (160°)3.5 mphPartly Cloudy
8:55 AM48.2 °F39.2 °F71 %30.18 in10.0 miSSW (200°)8.1 mphPartly Cloudy
9:35 AM51.8 °F37.4 °F58 %30.18 in10.0 miSSW (210°)8.1 mphMostly Cloudy
9:55 AM50.0 °F37.4 °F62 %30.18 in10.0 miWest (280°)8.1 mphOvercast
10:35 AM51.8 °F37.4 °F58 %30.18 in10.0 miWSW (240°)5.8 mphOvercast
10:55 AM51.8 °F37.4 °F58 %30.17 in10.0 miWSW (250°)4.6 mphOvercast
11:15 AM51.8 °F35.6 °F54 %30.17 in10.0 miWNW (290°)5.8 mphOvercast
11:35 AM51.8 °F39.2 °F62 %30.16 in10.0 miSouth (170°)4.6 mphOvercast
11:55 AM51.8 °F41.0 °F67 %30.16 in10.0 miSE (130°)3.5 mphOvercast
12:15 PM53.6 °F41.0 °F62 %30.15 in10.0 miSE (140°)5.8 mphOvercast
12:35 PM53.6 °F41.0 °F62 %30.15 in10.0 miSouth (180°)5.8 mphMostly Cloudy
12:55 PM53.6 °F41.0 °F62 %30.14 in10.0 miSSW (210°)12.7 mph17.3 mphPartly Cloudy
1:15 PM53.6 °F39.2 °F58 %30.14 in10.0 miSouth (180°)8.1 mph17.3 mphPartly Cloudy
1:35 PM55.4 °F41.0 °F58 %30.14 in10.0 miSSW (200°)17.3 mph23.0 mphPartly Cloudy
1:55 PM55.4 °F39.2 °F54 %30.14 in10.0 miSouth (190°)12.7 mph21.9 mphClear
2:15 PM55.4 °F39.2 °F54 %30.13 in10.0 miSouth (190°)16.1 mph26.5 mphClear
2:35 PM55.4 °F39.2 °F54 %30.12 in10.0 miSouth (190°)15.0 mph25.3 mphClear
2:55 PM55.4 °F39.2 °F54 %30.12 in10.0 miSouth (180°)9.2 mph20.7 mphClear
3:15 PM53.6 °F39.2 °F58 %30.11 in10.0 miSouth (190°)11.5 mph19.6 mphClear
3:55 PM53.6 °F39.2 °F58 %30.10 in10.0 miSouth (190°)12.7 mph18.4 mphClear
4:15 PM51.8 °F39.2 °F62 %30.09 in10.0 miSSW (200°)11.5 mph16.1 mphClear
4:35 PM51.8 °F39.2 °F62 %30.09 in10.0 miSouth (190°)11.5 mph16.1 mphClear
4:55 PM51.8 °F39.2 °F62 %30.09 in10.0 miSouth (180°)8.1 mphClear
5:15 PM51.8 °F39.2 °F62 %30.08 in10.0 miSouth (190°)9.2 mphClear
5:35 PM51.8 °F39.2 °F62 %30.07 in10.0 miSouth (180°)5.8 mphClear
5:55 PM51.8 °F39.2 °F62 %30.06 in10.0 miSouth (180°)8.1 mphClear
6:15 PM50.0 °F39.2 °F66 %30.04 in10.0 miSouth (180°)8.1 mphClear
6:35 PM50.0 °F39.2 °F66 %30.03 in10.0 miSouth (170°)6.9 mphClear
6:55 PM50.0 °F41.0 °F71 %30.02 in10.0 miSouth (190°)9.2 mphClear
7:15 PM50.0 °F41.0 °F71 %30.01 in10.0 miSSW (200°)6.9 mphClear
7:35 PM50.0 °F39.2 °F66 %29.99 in10.0 miSSW (210°)9.2 mphClear
7:55 PM50.0 °F41.0 °F71 %29.98 in10.0 miSW (220°)6.9 mphPartly Cloudy
8:15 PM50.0 °F39.2 °F66 %29.98 in10.0 miSW (230°)3.5 mphPartly Cloudy
8:35 PM50.0 °F41.0 °F71 %29.96 in10.0 miSW (220°)6.9 mphPartly Cloudy
8:55 PM48.2 °F41.0 °F76 %29.95 in10.0 miSW (220°)8.1 mphPartly Cloudy
9:15 PM48.2 °F41.0 °F76 %29.96 in10.0 miCalmScattered Clouds
9:35 PM48.2 °F42.8 °F82 %29.97 in10.0 miWest (260°)5.8 mphMostly Cloudy
9:55 PM46.4 °F44.6 °F93 %29.95 in7.0 miSW (220°)8.1 mphRainLight Rain
10:15 PM46.4 °F44.6 °F93 %29.94 in4.0 miSSW (210°)6.9 mphRainLight Rain
10:35 PM46.4 °F44.6 °F93 %29.93 in6.0 miCalmRainLight Rain
10:55 PM46.4 °F44.6 °F93 %29.93 in8.0 miSSW (210°)3.5 mphRainLight Rain
11:15 PM46.4 °F44.6 °F93 %29.92 in10.0 miSSW (210°)6.9 mphRainLight Rain
11:35 PM46.4 °F44.6 °F93 %29.91 in10.0 miSouth (180°)5.8 mphOvercast
11:55 PM46.4 °F44.6 °F93 %29.90 in10.0 miSSW (200°)5.8 mphOvercast
Hourly data recorded from CZBB, located miles away from Vancouver, British Columbia







STORIES FROM OUR PARTNERS